This demonstration page uses our WeatherBlox Daily Observations layout. Learn more.

Left ArrowRight Arrow

41.86663, -103.66717

Hourly Observations for July 28, 2021

Temp ( °F °C ) Dew Point ( °F °C ) Humidity (%) Winds ( mph kmh ) Pressure ( in mb ) Visibility ( mi km ) Precip ( " mm )
12:53 am 00:53 Clear 71 21.7 58 14.4 63 63 E 8 13 29.92 1013 10 16 N/A
1:53 am 01:53 Clear 70 21.1 58 14.4 66 66 undefined N/A 29.91 1013 10 16 N/A
2:53 am 02:53 Clear 69 20.6 58 14.4 68 68 undefined N/A 29.90 1012 10 16 N/A
3:53 am 03:53 Clear 70 21.1 58 14.4 66 66 E 6 9 29.89 1012 10 16 N/A
4:53 am 04:53 Clear 68 20 58 14.4 70 70 ENE 8 13 29.90 1013 10 16 N/A
5:53 am 05:53 Sunny 69 20.6 58 14.4 68 68 E 9 15 29.90 1013 10 16 N/A
6:53 am 06:53 Sunny 72 22.2 59 15 64 64 ENE 5 7 29.91 1013 10 16 N/A
7:53 am 07:53 Sunny 76 24.4 60 15.6 58 58 ESE 8 13 29.92 1013 10 16 N/A
8:53 am 08:53 Sunny 81 27.2 62 16.7 53 53 ESE 6 9 29.92 1013 10 16 N/A
9:53 am 09:53 Sunny 85 29.4 60 15.6 43 43 VRB 3 6 29.91 1013 10 16 N/A
10:53 am 10:53 Sunny 88 31.1 62 16.7 42 42 E 7 11 29.91 1013 10 16 N/A
11:53 am 11:53 Sunny 93 33.9 65 18.3 40 40 ENE 8 13 29.90 1012 10 16 N/A
12:53 pm 12:53 Sunny 98 36.7 59 15 27 27 E 10 17 29.87 1011 10 16 N/A
1:53 pm 13:53 Sunny 101 38.3 52 11.1 19 19 E 9 15 29.86 1011 10 16 N/A
2:53 pm 14:53 Sunny 102 38.9 53 11.7 19 19 ENE 12 19 29.86 1011 10 16 N/A
3:53 pm 15:53 Sunny 102 38.9 57 13.9 23 23 E 10 17 29.85 1011 10 16 N/A
4:53 pm 16:53 Sunny 100 37.8 54 12.2 21 21 E 10 17 29.85 1011 10 16 N/A
5:53 pm 17:53 Sunny 98 36.7 59 15 27 27 ESE 9 15 29.84 1010 10 16 N/A
6:53 pm 18:53 Sunny 94 34.4 61 16.1 33 33 E 8 13 29.84 1011 10 16 N/A
7:53 pm 19:53 Sunny 88 31.1 61 16.1 40 40 E 8 13 29.85 1011 10 16 N/A
8:53 pm 20:53 Clear 84 28.9 56 13.3 38 38 E 9 15 29.88 1012 10 16 N/A
9:53 pm 21:53 Clear 81 27.2 54 12.2 39 39 ESE 8 13 29.91 1013 10 16 N/A
10:53 pm 22:53 Clear 78 25.6 53 11.7 42 42 SSE 7 11 29.92 1013 10 16 N/A
11:53 pm 23:53 Clear 83 28.3 59 15 44 44 NE 20 31 29.92 1013 10 16 N/A

Powered by AerisWeather